CSS (TIANHE-1)
1 48274U 21035A   25282.82095152  .00033270  00000-0  38124-3 0  9993
2 48274  41.4661  45.2058 0002901 220.2301 139.8324 15.61401875254048
TUBIN
1 48900U 21059X   25282.67558043  .00102601  00000-0  66374-3 0  9994
2 48900  97.6750 103.0145 0002160 147.0094 213.1305 15.75763488239154
LEDSAT
1 49069U 21073D   25282.64025367  .01155408  79916-3  14329-2 0  9993
2 49069  97.3621  11.4850 0007949 286.1251  73.9156 16.07940773230629
CUTE
1 49263U 21088D   25282.20339642  .00028584  00000-0  45572-3 0  9994
2 49263  97.4402   2.4178 0006808 140.6341 219.5408 15.53177799223263
TeikyoSat 4
1 49396U 21102B   25282.05682793  .00003188  00000-0  20960-3 0  9996
2 49396  97.3985 316.0694 0013953  78.6897 281.5899 15.08204532214851
Z-Sat
1 49399U 21102E   25282.81775772  .00004742  00000-0  25239-3 0  9994
2 49399  97.3674 320.6875 0018736  44.4069 315.8662 15.15552156215482
KOSEN 1
1 49402U 21102H   25282.57202575  .00008274  00000-0  36272-3 0  9991
2 49402  97.3572 324.8294 0015493  18.3230 341.8561 15.22134508215833
HO-113
1 50466U 21131B   25282.84011978  .00000775  00000-0  25492-3 0  9990
2 50466  98.5075  11.5843 0005159 123.6022 236.5659 14.40979530199057
SNUGLITE 2
1 52899U 22065F   25282.81659862  .00001593  00000-0  31603-3 0  9996
2 52899  98.1869  63.7461 0008698  90.6036 269.6163 14.63562498174360
UmKA 1 (RS40S)
1 57172U 23091G   25282.78200591  .00007504  00000-0  38334-3 0  9998
2 57172  97.5434 337.5477 0012365 271.0617  88.9199 15.16914884125990
CubeBel-2 (EU11S)
1 57175U 23091K   25282.85462955  .00011232  00000-0  49598-3 0  9990
2 57175  97.5432 339.5837 0009987 275.4348  84.5748 15.21869724126135
ENSO
1 58470U 23185J   25281.93581024  .00297561  00000-0  15281-2 0  9992
2 58470  97.3562   2.3759 0004010 303.5658  56.5227 15.80429301104004
SONATE-2
1 59112U 24043Q   25282.31161856  .00024830  00000-0  60880-3 0  9993
2 59112  97.5295  56.4066 0010184  41.1574 319.0438 15.40662344 89044
MO-122
1 60209U 24125G   25282.48325634  .00027668  00000-0  66109-3 0  9999
2 60209  97.2619 133.0201 0018178  60.8345 299.4718 15.41298739 70695
GRBBeta
1 60237U 24128C   25282.53978273  .00005572  00000-0  40367-3 0  9990
2 60237  61.9929  13.9873 0056915  83.1420 277.6142 15.03870797 68539
Curium One
1 60242U 24128H   25282.47871112  .00009221  00000-0  59965-3 0  9992
2 60242  61.9825  10.4674 0056735  79.6161 281.1320 15.07275173 68598
ROBUSTA-3A
1 60243U 24128J   25282.45631036  .00009483  00000-0  62652-3 0  9997
2 60243  61.9898  11.8133 0056231  77.1557 283.5810 15.06688715 68574
CatSat
1 60246U 24125J   25282.31127755  .00028653  00000-0  82326-3 0  9990
2 60246  97.2435 130.6174 0038889  22.2352 338.0567 15.35013657 68624
HYPERVIEW-1G (RS66S)
1 61772U 24199AP  25282.86488650  .00032736  00000-0  77415-3 0  9990
2 61772  97.3302 151.7771 0013939 108.7774 251.4987 15.41649262 95759
AO-123
1 61781U 24199AY  25282.81918605  .00009059  00000-0  31085-3 0  9998
2 61781  97.3330 149.0231 0016787 120.0785 240.2123 15.30243889 95564
ZIMSAT 2
1 61783U 24199BA  25282.84502613  .00076993  00000-0  12125-2 0  9995
2 61783  97.3239 153.6969 0012901 101.1215 259.1490 15.53222600 99030
HADES-R (SO-124)
1 62690U 25009CK  25282.48735887  .00075836  00000-0  18091-2 0  9998
2 62690  97.3984   3.5688 0001263   1.6403 358.4848 15.41274377 40837
HYDRA-T
1 62692U 25009CM  25282.18315360  .00077609  00000-0  18177-2 0  9992
2 62692  97.3989   3.3648 0001247 339.0260  21.0936 15.41821408 40798
JINJUSat 1B
1 63210U 25052A   25282.42635785  .00016185  00000-0  67302-3 0  9997
2 63210  97.4234 175.1124 0001549 237.1807 122.9281 15.23861124 31788
NUSHSAT 1
1 63211U 25052B   25282.65351846  .00018516  00000-0  75496-3 0  9999
2 63211  97.4214 175.3909 0001420 249.5598 110.5487 15.24496863 31823
TEVEL2-4
1 63213U 25052D   25282.43358112  .00016793  00000-0  69504-3 0  9998
2 63213  97.4134 174.8495 0000819 320.4413  39.6764 15.24013081 31787
TEVEL2-5
1 63214U 25052E   25282.17391974  .00017317  00000-0  71776-3 0  9990
2 63214  97.4136 174.5862 0000857 321.1858  38.9318 15.23956890 31744
TEVEL2-6
1 63215U 25052F   25282.63890987  .00017166  00000-0  71207-3 0  9991
2 63215  97.4137 175.0374 0000902 320.6431  39.4740 15.23932200 31814
TEVEL2-1
1 63217U 25052H   25282.20940308  .00016693  00000-0  69850-3 0  9994
2 63217  97.4111 174.4748 0001644 342.0278  18.0901 15.23642516 31749
TEVEL2-3
1 63218U 25052J   25282.27497532  .00016770  00000-0  70143-3 0  9991
2 63218  97.4112 174.5424 0001695 341.2104  18.9070 15.23656852 31753
TEVEL2-2
1 63219U 25052K   25282.66987882  .00016844  00000-0  70450-3 0  9990
2 63219  97.4109 174.9298 0001669 340.7095  19.4079 15.23656207 31813
TEVEL2-9
1 63237U 25052AD  25282.17894704  .00018285  00000-0  79529-3 0  9993
2 63237  97.4176 174.2346 0006017 327.1933  32.8929 15.22294640 31716
TEVEL2-7
1 63238U 25052AE  25282.64761661  .00016671  00000-0  72745-3 0  9991
2 63238  97.4177 174.6824 0006092 324.6608  35.4224 15.22204374 31786
TEVEL2-8
1 63239U 25052AF  25282.65209270  .00016836  00000-0  73524-3 0  9995
2 63239  97.4178 174.6743 0006093 325.5710  34.5131 15.22174913 31785
HYDRA-W
1 63490U 25052BL  25282.14793987  .00049332  00000-0  16065-2 0  9994
2 63490  97.4113 175.4985 0007052 320.7996  39.2734 15.31660316 31800
HADES-ICM (SO-125)
1 63492U 25052BN  25282.67130375  .00043383  00000-0  14571-2 0  9990
2 63492  97.4130 175.8845 0007626 321.9946  38.0756 15.30689567 31871
